CW1532 Weather Reports


time (UTC)temp
F
wind
direction
speed
knots
gust
knots
rain 1hr
in
rain 24hr
in
rain mn
in
humidity
%
barometer
mb
20260502191524 52 123 0.9 4.3 0.00 0.01 0.01 86 1010.5
20260502190045 52 165 1.7 5.2 0.00 0.01 0.01 86 1010.6
20260502184512 52 162 1.7 6.1 0.00 0.01 0.01 85 1010.8
20260502183040 52 169 2.6 7.0 0.00 0.01 0.01 86 1010.7
20260502181507 52 150 1.7 3.5 0.00 0.01 0.01 86 1010.9
20260502163037 51 204 1.7 4.3 0.00 0.01 0.01 86 1011.3
20260502161554 51 216 2.6 5.2 0.00 0.01 0.01 86 1011.2
20260502151526 50 192 0.0 5.2 0.01 0.01 0.01 87 1011.8
20260502123043 51 256 0.0 2.6 0.00 0.00 0.00 83 1011.8
20260502121554 51 240 1.7 5.2 0.00 0.00 0.00 83 1012.4
20260502114544 51 278 1.7 3.5 0.00 0.00 0.00 83 1011.9
20260502113050 50 270 0.9 3.5 0.00 0.00 0.00 84 1011.7
20260502111503 49 297 0.0 1.7 0.00 0.00 0.00 85 1011.7
20260502110025 49 210 0.0 0.9 0.00 0.00 0.00 86 1011.4
20260502104546 48 210 0.0 1.7 0.00 0.00 0.00 86 1011.6
20260502103108 47 202 0.0 0.9 0.00 0.00 0.00 85 1011.5
20260502101522 47 202 0.0 0.0 0.00 0.00 0.00 84 1011.4
20260502100116 48 178 0.0 0.0 0.00 0.00 0.00 84 1011.3
20260502091518 49 235 0.0 2.6 0.00 0.00 0.00 82 1011.4
20260502071506 48 267 0.0 0.9 0.00 0.00 0.00 81 1011.3
20260502070038 48 202 0.0 2.6 0.00 0.00 0.00 80 1011.4
20260502064552 48 154 0.9 2.6 0.00 0.00 0.00 79 1011.5
20260502063025 48 194 0.0 1.7 0.00 0.00 0.00 78 1011.4
20260502061541 49 207 0.0 0.9 0.00 0.00 0.00 77 1011.5
20260502060004 49 197 0.0 1.7 0.00 0.00 0.00 76 1011.7
20260502054538 49 170 0.9 3.5 0.00 0.00 0.00 76 1011.5
20260502053111 50 259 0.0 5.2 0.00 0.00 0.00 75 1011.8
20260502051530 50 232 1.7 5.2 0.00 0.00 0.00 74 1012.0
20260502050048 50 265 0.0 3.5 0.00 0.00 0.00 74 1012.3
20260502044505 50 235 0.9 3.5 0.00 0.00 0.00 74 1012.3
20260502043037 50 233 0.0 3.5 0.00 0.00 0.00 74 1012.2
20260502041600 50 226 0.9 4.3 0.00 0.00 0.00 74 1012.1
20260502040038 50 264 1.7 5.2 0.00 0.00 0.00 73 1012.1
20260502034551 50 212 0.9 4.3 0.00 0.00 0.00 73 1012.3
20260502033031 50 231 1.7 5.2 0.00 0.00 0.00 73 1012.3
20260502031501 50 270 1.7 3.5 0.00 0.00 0.00 72 1012.2
20260502030052 50 264 0.9 6.1 0.00 0.00 0.00 72 1012.3
20260502024544 51 263 0.0 3.5 0.00 0.00 0.00 72 1012.3
20260502023008 51 244 0.9 3.5 0.00 0.00 0.00 71 1012.2
20260502021534 51 269 1.7 5.2 0.00 0.00 0.00 70 1011.9
20260502020004 51 246 1.7 5.2 0.00 0.00 0.00 70 1012.0
20260502014544 51 261 0.9 6.1 0.00 0.00 0.00 69 1012.1
20260502013104 51 267 1.7 7.0 0.00 0.00 0.00 69 1012.1
20260502011534 52 244 1.7 6.1 0.00 0.00 0.00 69 1012.1
20260502010050 52 234 1.7 7.8 0.00 0.00 0.00 69 1012.0
20260502004609 52 268 1.7 8.7 0.00 0.00 0.00 68 1011.7
20260502003028 53 271 3.5 8.7 0.00 0.00 0.00 67 1011.4
20260502001544 53 279 4.3 11.3 0.00 0.00 0.00 66 1011.1
20260502000018 54 250 2.6 10.4 0.00 0.00 0.00 66 1010.6
20260501234559 55 254 5.2 8.7 0.00 0.00 0.00 63 1010.4
20260501233016 56 248 1.7 7.8 0.00 0.00 0.00 57 1010.4
20260501231600 57 232 0.9 10.4 0.00 0.00 0.00 52 1010.2
20260501230026 59 212 1.7 6.1 0.00 0.00 0.00 44 1009.8
20260501224552 59 198 2.6 8.7 0.00 0.00 0.00 44 1009.8
20260501223033 60 271 4.3 11.3 0.00 0.00 0.00 42 1009.8
20260501221618 60 232 2.6 9.6 0.00 0.00 0.00 41 1009.7
20260501220032 60 265 5.2 13.0 0.00 0.00 0.00 41 1009.7
20260501214554 60 260 4.3 13.0 0.00 0.00 0.00 42 1009.6
20260501213016 60 278 3.5 13.0 0.00 0.00 0.00 42 1009.5
20260501211537 60 219 3.5 13.0 0.00 0.00 0.00 43 1009.4
20260501210059 60 267 6.1 10.4 0.00 0.00 0.00 42 1009.5
20260501204518 59 207 6.1 12.2 0.00 0.00 0.00 44 1009.6
20260501203058 59 216 3.5 13.0 0.00 0.00 0.00 48 1009.5
20260501201524 58 241 6.1 14.8 0.00 0.00 0.00 46 1009.3
20260501200046 59 246 3.5 13.0 0.00 0.00 0.00 48 1009.4
20260501194504 58 217 4.3 17.4 0.00 0.00 0.00 49 1009.5
20260501193040 58 219 6.1 13.9 0.00 0.00 0.00 48 1009.4